17:39
Airports
History
Links
Donate
Help keep this website running!
PayPal
Bitcoin
This page is community maintained. The information is intended for PC simulator navigation or reference.
Always use approved charts for navigation.
EHDV
Voorst Sport
Voorst Sport (EHDV)
Kraggenburg, Flevoland, Netherlands (8317)
4
Lat/Lng:52° 40' 6.66" N / 5° 55' 43.03" E
52.668518 / 5.928619
Elevation:1'ft / 0mMSL
ID / ICAO:EHDV
Runways:1
Longest:23-05
Grass 853m / 2,799ft
Nearby Weather17:25 GMT 2018-02-24
Nearby weather at EHLW, Leeuwarden located 39.2 nautical miles from EHDV
Altimeter: 30.39
Visibility: 6.2 statute miles
Wind: 10 knots (from 070°)
Temp: 1°c / 34°f
Humidity: 59.4%

METAR: EHLW 241725Z AUTO 07010KT 010V120 9999 NCD 01/M06 Q1029 BLU

(Powered by phpweather)
Nearby VORs <50NM
Nearby NDBs
Runway 23 / 05
Dimensions:853 x 36.6m 2799' x 120'ft
Surface:Grass
Runway 23 [A]Runway 05 [B]
Heading:227°TH 047°TH
Lat:
Lng:
52° 40' 15.92"N
5° 55' 59.97"E
52° 39' 57.41"N
5° 55' 26.09"E
User Notes and Comments
52° 40' 6.66" N / 5° 55' 43.03" E
Distance To
Airport ID:
Nearby Airports
4 Emmeloord 8.7 NM
EHNP WNW 299°
4 Dalfsen Gliders 21.8 NM
EHDS SE 130°
(U) Lelystad 22.5 NM
EHLE SW 229°
(C) Hoogeveen 25.3 NM
EHHO E 80°
(C) Teuge International Airport 29.7 NM
EHTE S 170°
(C) Drachten 32.2 NM
EHDR NNE 15°
(C) Leeuwarden 39.2 NM
EHLW ( WX ) N 349°
VFR Chart
Flight Planning at SkyVector.com